Location: Caserta
(41.0670°N, 14.3330°E)
Time: 04:46:17
(UTC+02:00)

STARLINK-1341 - Pass Details

Date: 04 October 2020
Orbit: 549 x 550 km, 53.0° (Epoch: 20 October)

Event Time Altitude Azimuth Distance (km) Brightness Sun altitude
Exits shadow 05:48:21 12° 316° (NW) 1,681 5.7 -14.8°
Maximum altitude 05:50:30 17° 350° (N) 1,432 5.7 -14.4°
Drops below altitude 10° 05:53:16 10° 32° (NNE) 1,826 6.8 -13.9°
Sets 05:56:10 0° 53° (NE) 2,721 8.2 -13.4°
